Regional Weather Roundup
Issued by NWS

Home | Current Version | Previous Version | Text Only | Print | Product List | Glossary Off
Versions: 1 2 3 4 5 6 7 8 9 10 11 12 13 14 15 16 17 18 19 20 21 22 23 24 25 26 27 28 29 30 31 32 33 34 35 36 37 38 39 40 41 42 43 44 45 46 47 48 49 50

000
ASUS45 KSLC 200510
RWRUT

UTAH REGIONAL WEATHER ROUNDUP
NATIONAL WEATHER SERVICE SALT LAKE CITY UT
1100 PM MDT SAT AUG 19 2017

UTZ001>011-023>025-200600-

NORTHERN UTAH

CITY           SKY/WX    TMP DP  RH WIND       PRES   REMARKS
BRIGHAM CITY   PTCLDY    75  34  22 NE6       29.99R
HILL AFB       CLOUDY    76  35  22 E13       30.01F
LOGAN          CLEAR     64  45  49 E3        30.01R
OGDEN          PTCLDY    76  38  25 SE3       29.98S
SALT LAKE CITY MOCLDY    83  42  23 E5        29.96S
TOOELE VALLEY  MOCLDY    72  37  28 SW5       29.99S
WENDOVER       MOCLDY    76  41  28 CALM      29.98R
HEBER CITY     PTCLDY    68  37  32 CALM      30.10S
WEST JORDAN    MOCLDY    77  50  38 SW5       30.01S

$$

UTZ011>015-024>027-200600-

CENTRAL/NORTHEAST UTAH

CITY           SKY/WX    TMP DP  RH WIND       PRES   REMARKS
PROVO AIRPORT  PTCLDY    72  48  42 SE8       30.02R
MOAB/CANYONLAN MOCLDY    76  33  21 SE3       30.02R
DELTA          MOCLDY    75  34  22 N7        30.04S
PRICE          PTCLDY    69  38  32 NE9       30.14S
ROOSEVELT      CLEAR     70  37  30 CALM      30.12S
VERNAL         CLOUDY    75  38  26 NW9       30.08F

$$

UTZ013>016-019>022-027-200600-

SOUTHERN UTAH

CITY           SKY/WX    TMP DP  RH WIND       PRES   REMARKS
BRYCE CANYON   PTCLDY    54  38  54 W9        30.30R
CEDAR CITY     CLEAR     71  36  27 SE8       30.13R
MILFORD        PTCLDY    70  33  25 CALM      30.05R
ST GEORGE      PTCLDY    85  40  20 SE5       29.92R
HANKSVILLE     MOCLDY    77  36  22 E3        30.03S
BLANDING       PTCLDY    72  33  23 N8        30.19R

$$

REGIONAL REPORTS     COLORADO/ARIZONA

CITY           SKY/WX    TMP DP  RH WIND       PRES   REMARKS
CRAIG, CO      CLOUDY    59  42  53 N6        30.17R
GRAND JUNCTION CLOUDY    72  33  24 N3        30.05R
RIFLE, CO      CLEAR     67  36  31 SE6       30.13R
MONTROSE, CO   CLEAR     67  40  37 SE8       30.16R
CORTEZ, CO     CLOUDY    61  36  39 NE8       30.14R
COLORADO CITY    N/A     64  43  45 CALM      30.11S
PAGE, AZ       PTCLDY    88  35  15 SW7       29.99R
GRAND CANYON   PTCLDY    58  41  53 NE3       30.25R
KINGMAN, AZ    CLEAR     79  39  23 S10       30.00R
FLAGSTAFF, AZ  CLEAR     60  44  55 CALM      30.28S

$$

REGIONAL REPORTS    NEVADA/IDAHO/WYOMING

CITY           SKY/WX    TMP DP  RH WIND       PRES   REMARKS
LAS VEGAS, NV  CLEAR     94  40  15 S8        29.85R HX  90
ELY, NY        PTCLDY    62  34  35 SE7       30.17R
ELKO, NV       MOCLDY    73  34  23 E6        30.03R
POCATELLO, ID  CLEAR     69  34  27 S10       30.02R
BURLEY, ID     PTCLDY    67  38  34 W12       30.01R
FORT BRIDGER,    N/A     64  32  30 S12       30.25S
EVANSTON, WY   CLOUDY    66  31  27 SE6       30.22S
ROCK SPRINGS,  CLEAR     67  32  27 SW10      30.19F

$$



USA.gov is the U.S. government's official web portal to all federal, state and local government web resources and services.